User: anonymous   Login
Location: Bayshore Village Mobile Home Park
(26.6945°N, 81.8642°W)
Time: 15:42:48
(UTC+00:00)
Language:

Hubble Space Telescope - Orbit

View from above orbital plane
View from above orbital plane
View from above satellite
View from above satellite

Ground track
Ground track

The orbit data is extracted from the following two-line orbital elements,

1 20580U 90037B   21258.22890376  .00000766  00000-0  35336-4 0  9992
2 20580  28.4693 191.0233 0002459 311.8676 165.2946 15.09735515524577
Epoch (UTC): 15 September 2021 05:29:37
Eccentricity: 0.0002459
inclination: 28.4693°
perigee height: 535 km
apogee height: 539 km
right ascension of ascending node: 191.0233°
argument of perigee: 311.8676°
revolutions per day: 15.09735515
mean anomaly at epoch: 165.2946°
orbit number at epoch: 52457

The dashed part of the orbit path shows where the satellite is in the earth's shadow,  

DLR